Regional Weather Roundup
Issued by NWS

Home | Current Version | Previous Version | Text Only | Print | Product List | Glossary Off
Versions: 1 2 3 4 5 6 7 8 9 10 11 12 13 14 15 16 17 18 19 20 21 22 23 24 25 26 27 28 29 30 31 32 33 34 35 36 37 38 39 40 41 42 43 44 45 46 47 48 49 50

407
ASUS43 KBIS 171302
RWRND

NORTH DAKOTA REGIONAL WEATHER ROUNDUP
NATIONAL WEATHER SERVICE BISMARCK ND
700 AM CST TUE JAN 17 2017

NOTE: "FAIR" INDICATES FEW OR NO CLOUDS BELOW 12,000 FEET WITH NO
SIGNIFICANT WEATHER AND/OR OBSTRUCTIONS TO VISIBILITY.


NDZ001>003-009>011-017-171400-
NORTHWEST NORTH DAKOTA

CITY           SKY/WX    TMP DP  RH WIND       PRES   REMARKS
WILLISTON      FAIR      10   5  80 S5        29.82F WCI   2
MINOT          FAIR      19  13  77 S9        29.83F WCI   8
$$

NDZ018>021-031>035-040>046-171400-
SOUTHWEST NORTH DAKOTA

CITY           SKY/WX    TMP DP  RH WIND       PRES   REMARKS
BISMARCK       FAIR       5   1  83 CALM      29.95F
DICKINSON      FAIR      21   9  59 SW15      29.85F WCI   8
GARRISON         N/A      6   2  83 S3        29.87F
HETTINGER ARPT CLOUDY     8   4  83 CALM      29.92F
$$

NDZ004>008-012>016-024-026-027-054-171400-
NORTHEAST NORTH DAKOTA

CITY           SKY/WX    TMP DP  RH WIND       PRES   REMARKS
GRAND FORKS    CLOUDY     1  -3  83 S7        29.94F WCI -12
GRND FRKS AFB  CLOUDY    10   6  84 S9        29.93F WCI  -4
DEVILS LAKE    FAIR      10   7  87 SW8       29.91F WCI  -2
$$

NDZ022-023-025-028>030-036>039-047>053-171400-
SOUTHEAST NORTH DAKOTA

CITY           SKY/WX    TMP DP  RH WIND       PRES   REMARKS
FARGO          CLOUDY     5   1  83 S3        29.98F
JAMESTOWN      FAIR       7   5  91 CALM      29.93F
$$





USA.gov is the U.S. government's official web portal to all federal, state and local government web resources and services.